Time,TemperatureF,DewpointF,PressureIn,WindDirection,WindDirectionDegrees,WindSpeedMPH,WindSpeedGustMPH,Humidity,HourlyPrecipIn,Conditions,Clouds,dailyrainin,SolarRadiationWatts/m^2,SoftwareType,DateUTC
2013-01-11 00:02:00,36.8,33.6,30.05,ESE,114,0.0,0.0,88,0.00,,,0.00,0,Wunderground v.1.15,2013-01-11 08:02:00,
2013-01-11 00:07:00,36.6,33.4,30.05,ESE,114,0.0,0.0,88,0.00,,,0.00,0,Wunderground v.1.15,2013-01-11 08:07:00,
2013-01-11 00:12:00,36.5,33.3,30.05,ESE,114,0.0,0.0,88,0.00,,,0.00,0,Wunderground v.1.15,2013-01-11 08:12:00,
2013-01-11 00:17:00,36.5,33.3,30.06,ESE,114,0.0,0.0,88,0.00,,,0.00,0,Wunderground v.1.15,2013-01-11 08:17:00,
2013-01-11 00:22:00,36.3,33.1,30.06,ESE,114,0.0,0.0,88,0.00,,,0.00,0,Wunderground v.1.15,2013-01-11 08:22:00,
2013-01-11 00:27:00,36.3,33.1,30.06,ESE,114,0.0,0.0,88,0.00,,,0.00,0,Wunderground v.1.15,2013-01-11 08:27:00,
2013-01-11 00:32:00,36.3,33.1,30.06,ESE,114,0.0,0.0,88,0.00,,,0.00,0,Wunderground v.1.15,2013-01-11 08:32:00,
2013-01-11 00:37:00,36.2,33.0,30.06,ESE,114,0.0,0.0,88,0.00,,,0.00,0,Wunderground v.1.15,2013-01-11 08:37:00,
2013-01-11 00:42:00,36.2,33.3,30.06,ESE,114,0.0,0.0,89,0.00,,,0.00,0,Wunderground v.1.15,2013-01-11 08:42:00,
2013-01-11 00:47:00,36.2,33.3,30.06,ESE,114,0.0,0.0,89,0.00,,,0.00,0,Wunderground v.1.15,2013-01-11 08:47:00,
2013-01-11 00:52:00,36.0,33.1,30.06,ESE,114,0.0,0.0,89,0.00,,,0.00,0,Wunderground v.1.15,2013-01-11 08:52:00,
2013-01-11 00:57:00,36.0,33.1,30.06,ESE,114,0.0,0.0,89,0.00,,,0.00,0,Wunderground v.1.15,2013-01-11 08:57:00,
2013-01-11 01:02:00,36.0,33.1,30.06,ESE,114,0.0,0.0,89,0.00,,,0.00,0,Wunderground v.1.15,2013-01-11 09:02:00,
2013-01-11 01:07:00,36.0,33.1,30.06,ESE,114,0.0,0.0,89,0.00,,,0.00,0,Wunderground v.1.15,2013-01-11 09:07:00,
2013-01-11 01:12:00,36.0,33.1,30.06,ESE,114,0.0,0.0,89,0.00,,,0.00,0,Wunderground v.1.15,2013-01-11 09:12:00,
2013-01-11 01:17:00,35.9,33.0,30.06,ESE,114,0.0,0.0,89,0.00,,,0.00,0,Wunderground v.1.15,2013-01-11 09:17:00,
2013-01-11 01:22:00,35.9,33.0,30.06,ESE,114,0.0,0.0,89,0.00,,,0.00,0,Wunderground v.1.15,2013-01-11 09:22:00,
2013-01-11 01:27:00,35.9,33.0,30.06,ESE,114,0.0,0.0,89,0.00,,,0.00,0,Wunderground v.1.15,2013-01-11 09:27:00,
2013-01-11 01:32:00,35.9,33.0,30.06,ESE,114,0.0,0.0,89,0.00,,,0.00,0,Wunderground v.1.15,2013-01-11 09:32:00,
2013-01-11 01:37:00,35.8,32.9,30.06,ESE,114,0.0,0.0,89,0.00,,,0.00,0,Wunderground v.1.15,2013-01-11 09:37:00,
2013-01-11 01:42:00,35.8,32.9,30.06,ESE,114,0.0,0.0,89,0.00,,,0.00,0,Wunderground v.1.15,2013-01-11 09:42:00,
2013-01-11 01:47:00,35.6,32.4,30.05,ESE,114,0.0,0.0,88,0.00,,,0.00,0,Wunderground v.1.15,2013-01-11 09:47:00,
2013-01-11 01:52:00,35.6,32.4,30.05,ESE,114,0.0,0.0,88,0.00,,,0.00,0,Wunderground v.1.15,2013-01-11 09:52:00,
2013-01-11 01:57:00,35.5,32.3,30.05,ESE,114,0.0,0.0,88,0.00,,,0.00,0,Wunderground v.1.15,2013-01-11 09:57:00,
2013-01-11 02:02:00,35.5,32.3,30.06,ESE,114,0.0,0.0,88,0.00,,,0.00,0,Wunderground v.1.15,2013-01-11 10:02:00,
2013-01-11 02:07:00,35.5,32.3,30.06,ESE,114,0.0,0.0,88,0.00,,,0.00,0,Wunderground v.1.15,2013-01-11 10:07:00,
2013-01-11 02:12:00,35.5,32.3,30.06,ESE,114,0.0,0.0,88,0.00,,,0.00,0,Wunderground v.1.15,2013-01-11 10:12:00,
2013-01-11 02:17:00,35.3,32.1,30.05,ESE,114,0.0,0.0,88,0.00,,,0.00,0,Wunderground v.1.15,2013-01-11 10:17:00,
2013-01-11 02:22:00,35.3,32.1,30.05,ESE,114,0.0,0.0,88,0.00,,,0.00,0,Wunderground v.1.15,2013-01-11 10:22:00,
2013-01-11 02:27:00,35.2,31.7,30.05,ESE,114,0.0,0.0,87,0.00,,,0.00,0,Wunderground v.1.15,2013-01-11 10:27:00,
2013-01-11 02:32:00,35.0,31.8,30.06,ESE,114,0.0,0.0,88,0.00,,,0.00,0,Wunderground v.1.15,2013-01-11 10:32:00,
2013-01-11 02:37:00,35.0,31.8,30.06,ESE,114,0.0,0.0,88,0.00,,,0.00,0,Wunderground v.1.15,2013-01-11 10:37:00,
2013-01-11 02:42:00,35.0,31.8,30.06,ESE,114,0.0,0.0,88,0.00,,,0.00,0,Wunderground v.1.15,2013-01-11 10:42:00,
2013-01-11 02:47:00,35.0,31.8,30.05,ESE,114,0.0,0.0,88,0.00,,,0.00,0,Wunderground v.1.15,2013-01-11 10:47:00,
2013-01-11 02:52:00,34.9,31.7,30.05,ESE,114,0.0,0.0,88,0.00,,,0.00,0,Wunderground v.1.15,2013-01-11 10:52:00,
2013-01-11 03:02:00,34.9,31.7,30.05,ESE,114,0.0,0.0,88,0.00,,,0.00,0,Wunderground v.1.15,2013-01-11 11:02:00,
2013-01-11 03:07:00,34.9,31.7,30.05,ESE,114,0.0,0.0,88,0.00,,,0.00,0,Wunderground v.1.15,2013-01-11 11:07:00,
2013-01-11 03:12:00,34.7,31.5,30.05,ESE,114,0.0,0.0,88,0.00,,,0.00,0,Wunderground v.1.15,2013-01-11 11:12:00,
2013-01-11 03:17:00,34.7,31.5,30.05,ESE,114,0.0,0.0,88,0.00,,,0.00,0,Wunderground v.1.15,2013-01-11 11:17:00,
2013-01-11 03:22:00,34.7,31.8,30.05,ESE,114,0.0,0.0,89,0.00,,,0.00,0,Wunderground v.1.15,2013-01-11 11:22:00,
2013-01-11 03:27:00,34.7,31.8,30.05,ESE,114,0.0,0.0,89,0.00,,,0.00,0,Wunderground v.1.15,2013-01-11 11:27:00,
2013-01-11 03:32:00,34.7,31.8,30.05,ESE,114,0.0,0.0,89,0.00,,,0.00,0,Wunderground v.1.15,2013-01-11 11:32:00,
2013-01-11 03:37:00,34.7,31.8,30.05,ESE,114,0.0,0.0,89,0.00,,,0.00,0,Wunderground v.1.15,2013-01-11 11:37:00,
2013-01-11 03:42:00,34.7,31.8,30.05,ESE,114,0.0,0.0,89,0.00,,,0.00,0,Wunderground v.1.15,2013-01-11 11:42:00,
2013-01-11 03:52:00,34.7,31.8,30.05,ESE,114,0.0,0.0,89,0.00,,,0.00,0,Wunderground v.1.15,2013-01-11 11:52:00,
2013-01-11 03:57:00,34.7,31.8,30.05,ESE,114,0.0,0.0,89,0.00,,,0.00,0,Wunderground v.1.15,2013-01-11 11:57:00,
2013-01-11 04:02:00,34.7,31.8,30.05,ESE,114,0.0,0.0,89,0.00,,,0.00,0,Wunderground v.1.15,2013-01-11 12:02:00,
2013-01-11 04:07:00,34.7,31.8,30.05,ESE,114,0.0,0.0,89,0.00,,,0.00,0,Wunderground v.1.15,2013-01-11 12:07:00,
2013-01-11 04:12:00,34.7,31.8,30.05,ESE,114,0.0,0.0,89,0.00,,,0.00,0,Wunderground v.1.15,2013-01-11 12:12:00,
2013-01-11 04:22:00,34.9,32.0,30.05,ESE,120,0.0,0.0,89,0.00,,,0.00,0,Wunderground v.1.15,2013-01-11 12:22:00,
2013-01-11 04:27:00,34.9,32.0,30.05,ESE,120,0.0,0.0,89,0.00,,,0.00,0,Wunderground v.1.15,2013-01-11 12:27:00,
2013-01-11 04:32:00,35.0,32.1,30.05,ESE,120,0.0,0.0,89,0.00,,,0.00,0,Wunderground v.1.15,2013-01-11 12:32:00,
2013-01-11 04:42:00,35.0,32.1,30.05,ESE,120,0.0,0.0,89,0.00,,,0.00,0,Wunderground v.1.15,2013-01-11 12:42:00,
2013-01-11 04:47:00,35.2,32.3,30.05,ESE,120,0.0,0.0,89,0.00,,,0.00,0,Wunderground v.1.15,2013-01-11 12:47:00,
2013-01-11 04:57:00,35.2,32.3,30.05,ESE,120,0.0,0.0,89,0.00,,,0.00,0,Wunderground v.1.15,2013-01-11 12:57:00,
2013-01-11 05:02:00,35.0,32.1,30.06,ESE,120,0.0,0.0,89,0.00,,,0.00,0,Wunderground v.1.15,2013-01-11 13:02:00,
2013-01-11 05:07:00,35.0,32.1,30.06,ESE,120,0.0,0.0,89,0.00,,,0.00,0,Wunderground v.1.15,2013-01-11 13:07:00,
2013-01-11 05:12:00,35.0,32.1,30.06,ESE,120,0.0,0.0,89,0.00,,,0.00,0,Wunderground v.1.15,2013-01-11 13:12:00,
2013-01-11 05:17:00,35.0,32.1,30.06,ESE,120,0.0,0.0,89,0.00,,,0.00,0,Wunderground v.1.15,2013-01-11 13:17:00,
2013-01-11 05:22:00,35.0,32.1,30.06,ESE,120,0.0,0.0,89,0.00,,,0.00,0,Wunderground v.1.15,2013-01-11 13:22:00,
2013-01-11 05:32:00,35.0,32.1,30.06,ESE,120,0.0,0.0,89,0.00,,,0.00,0,Wunderground v.1.15,2013-01-11 13:32:00,
2013-01-11 05:37:00,35.0,32.1,30.06,ESE,120,0.0,0.0,89,0.00,,,0.00,0,Wunderground v.1.15,2013-01-11 13:37:00,
2013-01-11 05:42:00,35.0,32.1,30.06,ESE,120,0.0,0.0,89,0.00,,,0.00,0,Wunderground v.1.15,2013-01-11 13:42:00,
2013-01-11 05:47:00,35.0,32.1,30.07,ESE,120,0.0,0.0,89,0.00,,,0.00,0,Wunderground v.1.15,2013-01-11 13:47:00,
2013-01-11 05:52:00,35.0,31.8,30.07,ESE,120,0.0,0.0,88,0.00,,,0.00,0,Wunderground v.1.15,2013-01-11 13:52:00,
2013-01-11 05:57:00,34.9,31.7,30.07,ESE,112,0.0,0.0,88,0.00,,,0.00,0,Wunderground v.1.15,2013-01-11 13:57:00,
2013-01-11 06:02:00,34.9,31.7,30.08,ESE,120,0.0,0.0,88,0.00,,,0.00,0,Wunderground v.1.15,2013-01-11 14:02:00,
2013-01-11 06:12:00,34.7,31.5,30.08,ESE,120,0.0,0.0,88,0.00,,,0.00,0,Wunderground v.1.15,2013-01-11 14:12:00,
2013-01-11 06:17:00,34.7,31.8,30.08,ESE,120,0.0,0.0,89,0.00,,,0.00,0,Wunderground v.1.15,2013-01-11 14:17:00,
2013-01-11 06:22:00,34.7,31.8,30.08,ESE,120,0.0,0.0,89,0.00,,,0.00,0,Wunderground v.1.15,2013-01-11 14:22:00,
2013-01-11 06:27:00,34.6,31.7,30.08,ESE,120,0.0,0.0,89,0.00,,,0.00,0,Wunderground v.1.15,2013-01-11 14:27:00,
2013-01-11 06:32:00,34.6,31.7,30.08,ESE,120,0.0,0.0,89,0.00,,,0.00,0,Wunderground v.1.15,2013-01-11 14:32:00,
2013-01-11 06:37:00,34.6,31.4,30.08,ESE,120,0.0,0.0,88,0.00,,,0.00,0,Wunderground v.1.15,2013-01-11 14:37:00,
2013-01-11 06:42:00,34.6,31.4,30.08,ESE,120,0.0,0.0,88,0.00,,,0.00,0,Wunderground v.1.15,2013-01-11 14:42:00,
2013-01-11 06:47:00,34.4,31.2,30.09,ESE,120,0.0,0.0,88,0.00,,,0.00,0,Wunderground v.1.15,2013-01-11 14:47:00,
2013-01-11 06:52:00,34.4,31.2,30.09,ESE,120,0.0,0.0,88,0.00,,,0.00,0,Wunderground v.1.15,2013-01-11 14:52:00,
2013-01-11 06:57:00,34.1,30.6,30.09,ESE,120,0.0,0.0,87,0.00,,,0.00,0,Wunderground v.1.15,2013-01-11 14:57:00,
2013-01-11 07:02:00,34.0,30.8,30.09,ESE,120,0.0,0.0,88,0.00,,,0.00,0,Wunderground v.1.15,2013-01-11 15:02:00,
2013-01-11 07:07:00,34.0,30.8,30.09,ESE,120,0.0,0.0,88,0.00,,,0.00,0,Wunderground v.1.15,2013-01-11 15:07:00,
2013-01-11 07:12:00,34.0,30.8,30.09,ESE,120,0.0,0.0,88,0.00,,,0.00,0,Wunderground v.1.15,2013-01-11 15:12:00,
2013-01-11 07:17:00,34.0,30.8,30.10,ESE,120,0.0,0.0,88,0.00,,,0.00,0,Wunderground v.1.15,2013-01-11 15:17:00,
2013-01-11 07:22:00,34.0,30.8,30.10,ESE,120,0.0,0.0,88,0.00,,,0.00,0,Wunderground v.1.15,2013-01-11 15:22:00,
2013-01-11 07:32:00,34.0,31.1,30.10,ESE,120,0.0,0.0,89,0.00,,,0.00,0,Wunderground v.1.15,2013-01-11 15:32:00,
2013-01-11 07:37:00,33.8,30.9,30.10,ESE,120,0.0,0.0,89,0.00,,,0.00,0,Wunderground v.1.15,2013-01-11 15:37:00,
2013-01-11 07:42:00,33.8,30.9,30.10,ESE,120,0.0,0.0,89,0.00,,,0.00,0,Wunderground v.1.15,2013-01-11 15:42:00,
2013-01-11 07:52:00,33.7,30.8,30.10,ESE,120,0.0,0.0,89,0.00,,,0.00,0,Wunderground v.1.15,2013-01-11 15:52:00,
2013-01-11 07:57:00,33.5,30.6,30.10,ESE,120,0.0,0.0,89,0.00,,,0.00,0,Wunderground v.1.15,2013-01-11 15:57:00,
2013-01-11 08:02:00,33.5,30.6,30.10,ESE,120,0.0,0.0,89,0.00,,,0.00,0,Wunderground v.1.15,2013-01-11 16:02:00,
2013-01-11 08:07:00,33.5,30.6,30.10,ESE,120,0.0,0.0,89,0.00,,,0.00,0,Wunderground v.1.15,2013-01-11 16:07:00,
2013-01-11 08:12:00,33.5,30.6,30.10,ESE,120,0.0,0.0,89,0.00,,,0.00,0,Wunderground v.1.15,2013-01-11 16:12:00,
2013-01-11 08:17:00,33.7,30.8,30.11,ESE,120,0.0,0.0,89,0.00,,,0.00,0,Wunderground v.1.15,2013-01-11 16:17:00,
2013-01-11 08:22:00,33.7,30.8,30.11,ESE,120,0.0,0.0,89,0.00,,,0.00,9,Wunderground v.1.15,2013-01-11 16:22:00,
2013-01-11 08:27:00,33.8,31.2,30.11,ESE,112,0.0,0.0,90,0.00,,,0.00,18,Wunderground v.1.15,2013-01-11 16:27:00,
2013-01-11 08:32:00,34.0,31.4,30.11,ESE,120,0.0,0.0,90,0.00,,,0.00,18,Wunderground v.1.15,2013-01-11 16:32:00,
2013-01-11 08:37:00,34.1,31.5,30.11,ESE,120,0.0,0.0,90,0.00,,,0.00,23,Wunderground v.1.15,2013-01-11 16:37:00,
2013-01-11 08:42:00,34.4,31.8,30.11,ESE,120,0.0,0.0,90,0.00,,,0.00,21,Wunderground v.1.15,2013-01-11 16:42:00,
2013-01-11 08:47:00,34.9,32.5,30.11,ESE,120,0.0,0.0,91,0.00,,,0.00,21,Wunderground v.1.15,2013-01-11 16:47:00,
2013-01-11 08:52:00,35.3,32.7,30.11,ESE,120,0.0,0.0,90,0.00,,,0.00,25,Wunderground v.1.15,2013-01-11 16:52:00,
2013-01-11 08:57:00,35.8,32.9,30.11,SSE,165,0.0,0.0,89,0.00,,,0.00,25,Wunderground v.1.15,2013-01-11 16:57:00,
2013-01-11 09:02:00,36.2,33.3,30.12,SSE,165,0.0,0.0,89,0.00,,,0.00,26,Wunderground v.1.15,2013-01-11 17:02:00,
2013-01-11 09:07:00,36.5,33.0,30.12,SSE,165,0.0,0.0,87,0.00,,,0.00,28,Wunderground v.1.15,2013-01-11 17:07:00,
2013-01-11 09:12:00,37.0,33.2,30.12,SSE,165,0.0,0.0,86,0.00,,,0.00,30,Wunderground v.1.15,2013-01-11 17:12:00,
2013-01-11 09:17:00,37.6,33.5,30.11,SSE,164,0.0,0.0,85,0.00,,,0.00,32,Wunderground v.1.15,2013-01-11 17:17:00,
2013-01-11 09:22:00,38.0,33.3,30.11,SSE,160,0.0,1.0,83,0.00,,,0.00,35,Wunderground v.1.15,2013-01-11 17:22:00,
2013-01-11 09:27:00,38.6,33.0,30.11,SSE,160,0.0,1.0,80,0.00,,,0.00,42,Wunderground v.1.15,2013-01-11 17:27:00,
2013-01-11 09:32:00,39.3,33.6,30.11,SSE,147,0.0,1.0,80,0.00,,,0.00,76,Wunderground v.1.15,2013-01-11 17:32:00,
2013-01-11 09:37:00,40.2,33.6,30.11,SSE,147,0.0,1.0,77,0.00,,,0.00,83,Wunderground v.1.15,2013-01-11 17:37:00,
2013-01-11 09:42:00,40.9,33.9,30.11,SSE,147,0.0,0.0,76,0.00,,,0.00,74,Wunderground v.1.15,2013-01-11 17:42:00,
2013-01-11 09:52:00,41.5,34.8,30.11,SSE,147,0.0,0.0,77,0.00,,,0.00,77,Wunderground v.1.15,2013-01-11 17:52:00,
2013-01-11 10:02:00,41.9,34.2,30.11,SE,138,0.0,0.0,74,0.00,,,0.00,72,Wunderground v.1.15,2013-01-11 18:02:00,
2013-01-11 10:07:00,42.1,33.7,30.11,SE,138,0.0,0.0,72,0.00,,,0.00,65,Wunderground v.1.15,2013-01-11 18:07:00,
2013-01-11 10:12:00,42.3,34.6,30.11,SE,138,0.0,0.0,74,0.00,,,0.00,46,Wunderground v.1.15,2013-01-11 18:12:00,
2013-01-11 10:17:00,42.3,33.9,30.11,SE,138,0.0,0.0,72,0.00,,,0.00,42,Wunderground v.1.15,2013-01-11 18:17:00,
2013-01-11 10:22:00,42.5,33.8,30.11,SE,138,0.0,0.0,71,0.00,,,0.00,70,Wunderground v.1.15,2013-01-11 18:22:00,
2013-01-11 10:27:00,42.8,33.7,30.11,SE,137,0.0,0.0,70,0.00,,,0.00,81,Wunderground v.1.15,2013-01-11 18:27:00,
2013-01-11 10:32:00,42.9,34.5,30.10,SE,137,0.0,0.0,72,0.00,,,0.00,90,Wunderground v.1.15,2013-01-11 18:32:00,
2013-01-11 10:37:00,43.2,34.1,30.10,ESE,121,0.0,0.0,70,0.00,,,0.00,81,Wunderground v.1.15,2013-01-11 18:37:00,
2013-01-11 10:42:00,43.5,34.7,30.10,ESE,121,0.0,0.0,71,0.00,,,0.00,86,Wunderground v.1.15,2013-01-11 18:42:00,
2013-01-11 10:47:00,43.6,34.8,30.10,ESE,121,0.0,0.0,71,0.00,,,0.00,84,Wunderground v.1.15,2013-01-11 18:47:00,
2013-01-11 10:52:00,43.8,34.3,30.10,South,188,0.0,0.0,69,0.00,,,0.00,60,Wunderground v.1.15,2013-01-11 18:52:00,
2013-01-11 10:57:00,43.9,34.0,30.10,NNW,344,0.0,0.0,68,0.00,,,0.00,104,Wunderground v.1.15,2013-01-11 18:57:00,
2013-01-11 11:02:00,44.3,33.7,30.09,NE,54,0.0,0.0,66,0.00,,,0.00,67,Wunderground v.1.15,2013-01-11 19:02:00,
2013-01-11 11:12:00,44.9,33.5,30.09,SE,124,0.0,0.0,64,0.00,,,0.00,77,Wunderground v.1.15,2013-01-11 19:12:00,
2013-01-11 11:17:00,45.4,33.5,30.09,SE,124,0.0,0.0,63,0.00,,,0.00,283,Wunderground v.1.15,2013-01-11 19:17:00,
2013-01-11 11:22:00,45.8,33.1,30.09,West,263,0.0,0.0,61,0.00,,,0.00,457,Wunderground v.1.15,2013-01-11 19:22:00,
2013-01-11 11:27:00,46.5,33.8,30.09,WSW,257,0.0,1.0,61,0.00,,,0.00,477,Wunderground v.1.15,2013-01-11 19:27:00,
2013-01-11 11:32:00,47.1,34.3,30.07,South,184,0.0,1.0,61,0.00,,,0.00,160,Wunderground v.1.15,2013-01-11 19:32:00,
2013-01-11 11:42:00,47.7,33.2,30.07,WSW,243,0.0,0.0,57,0.00,,,0.00,81,Wunderground v.1.15,2013-01-11 19:42:00,
2013-01-11 11:52:00,47.7,33.6,30.06,WSW,250,0.0,0.0,58,0.00,,,0.00,127,Wunderground v.1.15,2013-01-11 19:52:00,
2013-01-11 11:57:00,47.7,33.6,30.06,WSW,250,0.0,0.0,58,0.00,,,0.00,65,Wunderground v.1.15,2013-01-11 19:57:00,
2013-01-11 12:02:00,47.7,33.6,30.06,SSE,161,0.0,0.0,58,0.00,,,0.00,84,Wunderground v.1.15,2013-01-11 20:02:00,
2013-01-11 12:07:00,47.7,33.2,30.06,WSW,258,0.0,1.0,57,0.00,,,0.00,95,Wunderground v.1.15,2013-01-11 20:07:00,
2013-01-11 12:12:00,47.7,33.6,30.06,South,174,0.0,0.0,58,0.00,,,0.00,91,Wunderground v.1.15,2013-01-11 20:12:00,
2013-01-11 12:17:00,47.6,33.5,30.04,South,174,0.0,0.0,58,0.00,,,0.00,88,Wunderground v.1.15,2013-01-11 20:17:00,
2013-01-11 12:22:00,47.6,33.5,30.04,SW,222,0.0,0.0,58,0.00,,,0.00,84,Wunderground v.1.15,2013-01-11 20:22:00,
2013-01-11 12:27:00,47.6,34.0,30.04,SW,215,0.0,1.0,59,0.00,,,0.00,51,Wunderground v.1.15,2013-01-11 20:27:00,
2013-01-11 12:32:00,47.4,33.8,30.04,West,281,0.0,0.0,59,0.00,,,0.00,42,Wunderground v.1.15,2013-01-11 20:32:00,
2013-01-11 12:37:00,47.3,33.7,30.04,WNW,289,0.0,0.0,59,0.00,,,0.00,35,Wunderground v.1.15,2013-01-11 20:37:00,
2013-01-11 12:42:00,47.3,34.1,30.04,SE,140,0.0,1.0,60,0.00,,,0.00,53,Wunderground v.1.15,2013-01-11 20:42:00,
2013-01-11 12:47:00,47.3,34.5,30.03,SE,140,0.0,1.0,61,0.00,,,0.00,53,Wunderground v.1.15,2013-01-11 20:47:00,
2013-01-11 12:52:00,47.3,34.9,30.03,ESE,112,0.0,0.0,62,0.00,,,0.00,40,Wunderground v.1.15,2013-01-11 20:52:00,
2013-01-11 12:57:00,47.4,33.8,30.03,WSW,253,0.0,1.0,59,0.00,,,0.00,51,Wunderground v.1.15,2013-01-11 20:57:00,
2013-01-11 13:02:00,47.6,34.8,30.03,SSW,192,0.0,0.0,61,0.00,,,0.00,60,Wunderground v.1.15,2013-01-11 21:02:00,
2013-01-11 13:07:00,47.9,34.3,30.03,ENE,72,0.0,0.0,59,0.00,,,0.00,56,Wunderground v.1.15,2013-01-11 21:07:00,
2013-01-11 13:12:00,47.9,33.8,30.03,ENE,61,0.0,0.0,58,0.00,,,0.00,49,Wunderground v.1.15,2013-01-11 21:12:00,
2013-01-11 13:17:00,48.2,34.5,30.02,SE,143,0.0,0.0,59,0.00,,,0.00,55,Wunderground v.1.15,2013-01-11 21:17:00,
2013-01-11 13:22:00,48.3,34.2,30.02,SW,224,0.0,0.0,58,0.00,,,0.00,88,Wunderground v.1.15,2013-01-11 21:22:00,
2013-01-11 13:27:00,48.6,34.5,30.02,SE,137,0.0,0.0,58,0.00,,,0.00,76,Wunderground v.1.15,2013-01-11 21:27:00,
2013-01-11 13:32:00,48.8,34.7,30.02,SE,144,0.0,1.0,58,0.00,,,0.00,77,Wunderground v.1.15,2013-01-11 21:32:00,
2013-01-11 13:37:00,48.9,35.2,30.02,SSE,157,0.0,2.0,59,0.00,,,0.00,95,Wunderground v.1.15,2013-01-11 21:37:00,
2013-01-11 13:42:00,48.8,34.2,30.02,SSW,212,0.0,0.0,57,0.00,,,0.00,106,Wunderground v.1.15,2013-01-11 21:42:00,
2013-01-11 13:47:00,48.8,34.7,30.02,SE,134,0.0,1.0,58,0.00,,,0.00,81,Wunderground v.1.15,2013-01-11 21:47:00,
2013-01-11 13:52:00,48.6,35.3,30.02,SE,134,0.0,0.0,60,0.00,,,0.00,88,Wunderground v.1.15,2013-01-11 21:52:00,
2013-01-11 13:57:00,48.6,35.3,30.02,SE,138,0.0,0.0,60,0.00,,,0.00,99,Wunderground v.1.15,2013-01-11 21:57:00,
2013-01-11 14:02:00,48.6,35.7,30.02,SSE,147,0.0,0.0,61,0.00,,,0.00,99,Wunderground v.1.15,2013-01-11 22:02:00,
2013-01-11 14:07:00,48.6,35.3,30.02,ESE,117,0.0,0.0,60,0.00,,,0.00,93,Wunderground v.1.15,2013-01-11 22:07:00,
2013-01-11 14:12:00,48.8,36.4,30.02,East,99,0.0,1.0,62,0.00,,,0.00,83,Wunderground v.1.15,2013-01-11 22:12:00,
2013-01-11 14:17:00,48.6,35.3,30.02,ENE,62,1.0,1.0,60,0.00,,,0.00,72,Wunderground v.1.15,2013-01-11 22:17:00,
2013-01-11 14:22:00,48.5,36.1,30.02,SSE,147,0.0,0.0,62,0.00,,,0.00,86,Wunderground v.1.15,2013-01-11 22:22:00,
2013-01-11 14:27:00,48.3,35.9,30.02,WNW,292,0.0,0.0,62,0.00,,,0.00,63,Wunderground v.1.15,2013-01-11 22:27:00,
2013-01-11 14:32:00,48.3,35.9,30.02,SW,226,0.0,0.0,62,0.00,,,0.00,32,Wunderground v.1.15,2013-01-11 22:32:00,
2013-01-11 14:37:00,48.2,35.8,30.02,SW,226,0.0,1.0,62,0.00,,,0.00,32,Wunderground v.1.15,2013-01-11 22:37:00,
2013-01-11 14:42:00,48.0,36.4,30.02,ESE,110,0.0,0.0,64,0.00,,,0.00,49,Wunderground v.1.15,2013-01-11 22:42:00,
2013-01-11 14:47:00,47.7,37.3,30.01,SE,138,0.0,0.0,67,0.00,,,0.00,42,Wunderground v.1.15,2013-01-11 22:47:00,
2013-01-11 14:52:00,47.6,36.8,30.01,ESE,104,0.0,0.0,66,0.00,,,0.00,48,Wunderground v.1.15,2013-01-11 22:52:00,
2013-01-11 14:57:00,47.6,36.4,30.01,SSW,206,1.0,1.0,65,0.00,,,0.00,62,Wunderground v.1.15,2013-01-11 22:57:00,
2013-01-11 15:02:00,47.4,36.6,30.01,South,182,1.0,1.0,66,0.00,,,0.00,46,Wunderground v.1.15,2013-01-11 23:02:00,
2013-01-11 15:12:00,47.3,36.5,30.01,ESE,121,1.0,1.0,66,0.00,,,0.00,30,Wunderground v.1.15,2013-01-11 23:12:00,
2013-01-11 15:17:00,47.3,36.5,30.01,South,174,0.0,1.0,66,0.00,,,0.00,23,Wunderground v.1.15,2013-01-11 23:17:00,
2013-01-11 15:22:00,47.1,36.7,30.01,South,172,0.0,0.0,67,0.00,,,0.00,7,Wunderground v.1.15,2013-01-11 23:22:00,
2013-01-11 15:27:00,47.1,37.1,30.01,South,172,0.0,0.0,68,0.00,,,0.00,35,Wunderground v.1.15,2013-01-11 23:27:00,
2013-01-11 15:32:00,47.0,37.0,30.01,South,172,0.0,0.0,68,0.00,,,0.00,9,Wunderground v.1.15,2013-01-11 23:32:00,
2013-01-11 15:37:00,46.8,36.4,30.01,SSE,164,0.0,0.0,67,0.00,,,0.00,9,Wunderground v.1.15,2013-01-11 23:37:00,
2013-01-11 15:42:00,46.8,36.8,30.01,WSW,237,0.0,0.0,68,0.00,,,0.00,23,Wunderground v.1.15,2013-01-11 23:42:00,
2013-01-11 15:47:00,46.7,37.1,30.01,SE,137,0.0,0.0,69,0.00,,,0.00,25,Wunderground v.1.15,2013-01-11 23:47:00,
2013-01-11 15:57:00,46.4,37.1,30.01,SE,144,0.0,0.0,70,0.00,,,0.00,19,Wunderground v.1.15,2013-01-11 23:57:00,
2013-01-11 16:02:00,46.4,36.8,30.01,SE,144,0.0,2.0,69,0.00,,,0.00,16,Wunderground v.1.15,2013-01-12 00:02:00,
2013-01-11 16:07:00,46.2,37.3,30.01,SSE,161,0.0,2.0,71,0.00,,,0.00,12,Wunderground v.1.15,2013-01-12 00:07:00,
2013-01-11 16:12:00,46.1,37.2,30.01,SSE,158,0.0,0.0,71,0.00,,,0.00,9,Wunderground v.1.15,2013-01-12 00:12:00,
2013-01-11 16:17:00,46.1,37.2,30.00,SSE,158,0.0,1.0,71,0.00,,,0.00,11,Wunderground v.1.15,2013-01-12 00:17:00,
2013-01-11 16:22:00,46.0,37.5,30.00,SSE,158,0.0,0.0,72,0.00,,,0.00,7,Wunderground v.1.15,2013-01-12 00:22:00,
2013-01-11 16:27:00,45.8,37.6,30.00,SSE,158,0.0,0.0,73,0.00,,,0.00,7,Wunderground v.1.15,2013-01-12 00:27:00,
2013-01-11 16:32:00,45.8,37.6,30.00,SSE,158,0.0,0.0,73,0.00,,,0.00,0,Wunderground v.1.15,2013-01-12 00:32:00,
2013-01-11 16:37:00,45.7,37.5,30.00,SSE,158,0.0,0.0,73,0.00,,,0.00,16,Wunderground v.1.15,2013-01-12 00:37:00,
2013-01-11 16:42:00,45.7,37.9,30.00,SSE,158,0.0,0.0,74,0.00,,,0.00,0,Wunderground v.1.15,2013-01-12 00:42:00,
2013-01-11 16:52:00,45.4,37.9,30.00,SSE,158,0.0,0.0,75,0.00,,,0.00,0,Wunderground v.1.15,2013-01-12 00:52:00,
2013-01-11 17:02:00,45.1,37.6,30.00,SSE,158,0.0,0.0,75,0.00,,,0.00,0,Wunderground v.1.15,2013-01-12 01:02:00,
2013-01-11 17:07:00,44.9,37.5,30.00,SSE,158,0.0,0.0,75,0.00,,,0.00,0,Wunderground v.1.15,2013-01-12 01:07:00,
2013-01-11 17:12:00,44.8,37.4,30.00,SSE,158,0.0,0.0,75,0.00,,,0.00,0,Wunderground v.1.15,2013-01-12 01:12:00,
2013-01-11 17:17:00,44.6,37.2,30.00,SSE,150,0.0,0.0,75,0.00,,,0.00,0,Wunderground v.1.15,2013-01-12 01:17:00,
2013-01-11 17:22:00,44.3,36.9,30.00,SSE,150,0.0,0.0,75,0.00,,,0.00,0,Wunderground v.1.15,2013-01-12 01:22:00,
2013-01-11 17:27:00,44.2,37.4,30.00,SSE,150,0.0,0.0,77,0.00,,,0.00,0,Wunderground v.1.15,2013-01-12 01:27:00,
2013-01-11 17:32:00,44.1,37.7,30.00,SSE,150,0.0,0.0,78,0.00,,,0.00,0,Wunderground v.1.15,2013-01-12 01:32:00,
2013-01-11 17:37:00,43.9,37.5,30.00,SSE,150,0.0,0.0,78,0.00,,,0.00,0,Wunderground v.1.15,2013-01-12 01:37:00,
2013-01-11 17:42:00,43.6,37.5,30.00,SSE,150,0.0,0.0,79,0.00,,,0.00,0,Wunderground v.1.15,2013-01-12 01:42:00,
2013-01-11 17:47:00,43.6,37.5,29.99,SSE,150,0.0,0.0,79,0.00,,,0.00,0,Wunderground v.1.15,2013-01-12 01:47:00,
2013-01-11 17:52:00,43.5,37.4,29.99,SSE,150,0.0,0.0,79,0.00,,,0.00,0,Wunderground v.1.15,2013-01-12 01:52:00,
2013-01-11 17:57:00,43.5,37.7,29.99,SSE,150,0.0,0.0,80,0.00,,,0.00,0,Wunderground v.1.15,2013-01-12 01:57:00,
2013-01-11 18:02:00,43.3,37.5,30.00,SSE,150,0.0,0.0,80,0.00,,,0.00,0,Wunderground v.1.15,2013-01-12 02:02:00,
2013-01-11 18:07:00,43.3,37.5,30.00,SSE,150,0.0,0.0,80,0.00,,,0.00,0,Wunderground v.1.15,2013-01-12 02:07:00,
2013-01-11 18:12:00,43.2,37.8,30.00,SSE,150,0.0,0.0,81,0.00,,,0.00,0,Wunderground v.1.15,2013-01-12 02:12:00,
2013-01-11 18:17:00,43.1,37.7,30.00,SSE,150,0.0,0.0,81,0.00,,,0.00,0,Wunderground v.1.15,2013-01-12 02:17:00,
2013-01-11 18:22:00,43.1,38.0,30.00,SSE,150,0.0,0.0,82,0.00,,,0.00,0,Wunderground v.1.15,2013-01-12 02:22:00,
2013-01-11 18:32:00,42.9,37.8,30.00,SSE,150,0.0,0.0,82,0.00,,,0.00,0,Wunderground v.1.15,2013-01-12 02:32:00,
2013-01-11 18:37:00,42.9,38.1,30.00,SSE,150,0.0,0.0,83,0.00,,,0.00,0,Wunderground v.1.15,2013-01-12 02:37:00,
2013-01-11 18:42:00,42.9,38.1,30.00,SSE,150,0.0,0.0,83,0.00,,,0.00,0,Wunderground v.1.15,2013-01-12 02:42:00,
2013-01-11 18:47:00,42.9,38.1,30.00,SSE,150,0.0,0.0,83,0.00,,,0.00,0,Wunderground v.1.15,2013-01-12 02:47:00,
2013-01-11 18:52:00,42.9,38.1,30.00,SSE,148,0.0,0.0,83,0.00,,,0.00,0,Wunderground v.1.15,2013-01-12 02:52:00,
2013-01-11 18:57:00,43.1,38.0,30.00,South,186,0.0,0.0,82,0.00,,,0.00,0,Wunderground v.1.15,2013-01-12 02:57:00,
2013-01-11 19:02:00,43.2,38.1,30.00,SSE,168,0.0,0.0,82,0.00,,,0.00,0,Wunderground v.1.15,2013-01-12 03:02:00,
2013-01-11 19:12:00,43.1,38.3,30.00,SE,140,0.0,0.0,83,0.00,,,0.00,0,Wunderground v.1.15,2013-01-12 03:12:00,
2013-01-11 19:17:00,43.1,38.3,30.00,SE,140,0.0,1.0,83,0.00,,,0.00,0,Wunderground v.1.15,2013-01-12 03:17:00,
2013-01-11 19:22:00,42.9,37.8,30.00,ESE,106,0.0,0.0,82,0.00,,,0.00,0,Wunderground v.1.15,2013-01-12 03:22:00,
2013-01-11 19:27:00,42.9,38.1,30.00,ESE,106,0.0,0.0,83,0.00,,,0.00,0,Wunderground v.1.15,2013-01-12 03:27:00,
2013-01-11 19:32:00,42.9,38.1,30.00,SSE,162,0.0,1.0,83,0.00,,,0.00,0,Wunderground v.1.15,2013-01-12 03:32:00,
2013-01-11 19:37:00,42.9,38.1,30.00,ESE,120,0.0,1.0,83,0.00,,,0.00,0,Wunderground v.1.15,2013-01-12 03:37:00,
2013-01-11 19:42:00,42.9,38.1,30.00,ESE,120,0.0,0.0,83,0.00,,,0.00,0,Wunderground v.1.15,2013-01-12 03:42:00,
2013-01-11 19:47:00,42.8,38.0,30.00,ESE,112,0.0,0.0,83,0.00,,,0.00,0,Wunderground v.1.15,2013-01-12 03:47:00,
2013-01-11 19:52:00,42.8,38.0,30.00,ESE,112,0.0,0.0,83,0.00,,,0.00,0,Wunderground v.1.15,2013-01-12 03:52:00,
2013-01-11 20:02:00,42.6,37.8,30.00,ESE,112,0.0,0.0,83,0.00,,,0.00,0,Wunderground v.1.15,2013-01-12 04:02:00,
2013-01-11 20:07:00,42.5,38.0,30.00,ESE,112,0.0,0.0,84,0.00,,,0.00,0,Wunderground v.1.15,2013-01-12 04:07:00,
2013-01-11 20:12:00,42.3,37.8,30.00,ESE,112,0.0,0.0,84,0.00,,,0.00,0,Wunderground v.1.15,2013-01-12 04:12:00,
2013-01-11 20:22:00,42.1,37.9,30.00,ESE,112,0.0,0.0,85,0.00,,,0.00,0,Wunderground v.1.15,2013-01-12 04:22:00,
2013-01-11 20:27:00,41.8,37.6,30.00,ESE,112,0.0,0.0,85,0.00,,,0.00,0,Wunderground v.1.15,2013-01-12 04:27:00,
2013-01-11 20:32:00,41.8,37.6,30.00,ESE,112,0.0,0.0,85,0.00,,,0.00,0,Wunderground v.1.15,2013-01-12 04:32:00,
2013-01-11 20:37:00,41.6,37.4,30.00,ESE,112,0.0,0.0,85,0.00,,,0.00,0,Wunderground v.1.15,2013-01-12 04:37:00,
2013-01-11 20:47:00,41.3,37.4,30.00,ESE,112,0.0,0.0,86,0.00,,,0.00,0,Wunderground v.1.15,2013-01-12 04:47:00,
2013-01-11 20:52:00,41.2,37.3,30.00,ESE,112,0.0,0.0,86,0.00,,,0.00,0,Wunderground v.1.15,2013-01-12 04:52:00,
2013-01-11 20:57:00,41.1,37.2,30.00,ESE,112,0.0,0.0,86,0.00,,,0.00,0,Wunderground v.1.15,2013-01-12 04:57:00,
2013-01-11 21:02:00,40.9,37.0,30.00,ESE,112,0.0,0.0,86,0.00,,,0.00,0,Wunderground v.1.15,2013-01-12 05:02:00,
2013-01-11 21:07:00,40.8,36.9,30.00,ESE,112,0.0,0.0,86,0.00,,,0.00,0,Wunderground v.1.15,2013-01-12 05:07:00,
2013-01-11 21:12:00,40.8,36.9,30.00,ESE,112,0.0,0.0,86,0.00,,,0.00,0,Wunderground v.1.15,2013-01-12 05:12:00,
2013-01-11 21:17:00,40.6,37.0,30.00,ESE,112,0.0,0.0,87,0.00,,,0.00,0,Wunderground v.1.15,2013-01-12 05:17:00,
2013-01-11 21:22:00,40.5,36.9,30.00,ESE,112,0.0,0.0,87,0.00,,,0.00,0,Wunderground v.1.15,2013-01-12 05:22:00,
2013-01-11 21:27:00,40.3,36.7,30.00,ESE,112,0.0,0.0,87,0.00,,,0.00,0,Wunderground v.1.15,2013-01-12 05:27:00,
2013-01-11 21:32:00,40.2,36.6,30.00,ESE,112,0.0,0.0,87,0.00,,,0.00,0,Wunderground v.1.15,2013-01-12 05:32:00,
2013-01-11 21:37:00,40.2,36.6,30.00,ESE,112,0.0,0.0,87,0.00,,,0.00,0,Wunderground v.1.15,2013-01-12 05:37:00,
2013-01-11 21:42:00,40.1,36.5,30.00,ESE,112,0.0,0.0,87,0.00,,,0.00,0,Wunderground v.1.15,2013-01-12 05:42:00,
2013-01-11 21:47:00,39.9,36.6,30.00,ESE,112,0.0,0.0,88,0.00,,,0.00,0,Wunderground v.1.15,2013-01-12 05:47:00,
2013-01-11 21:52:00,39.9,36.6,30.00,ESE,112,0.0,0.0,88,0.00,,,0.00,0,Wunderground v.1.15,2013-01-12 05:52:00,
2013-01-11 21:57:00,39.8,36.5,30.00,ESE,112,0.0,0.0,88,0.00,,,0.00,0,Wunderground v.1.15,2013-01-12 05:57:00,
2013-01-11 22:02:00,39.8,36.5,30.00,ESE,112,0.0,0.0,88,0.00,,,0.00,0,Wunderground v.1.15,2013-01-12 06:02:00,
2013-01-11 22:07:00,39.8,36.5,30.00,ESE,112,0.0,0.0,88,0.00,,,0.00,0,Wunderground v.1.15,2013-01-12 06:07:00,
2013-01-11 22:12:00,39.6,36.3,30.00,ESE,112,0.0,0.0,88,0.00,,,0.00,0,Wunderground v.1.15,2013-01-12 06:12:00,
2013-01-11 22:22:00,39.5,36.2,30.00,ESE,112,0.0,0.0,88,0.00,,,0.00,0,Wunderground v.1.15,2013-01-12 06:22:00,
2013-01-11 22:27:00,39.3,36.0,30.00,ESE,112,0.0,0.0,88,0.00,,,0.00,0,Wunderground v.1.15,2013-01-12 06:27:00,
2013-01-11 22:32:00,39.3,36.3,30.01,ESE,112,0.0,0.0,89,0.00,,,0.00,0,Wunderground v.1.15,2013-01-12 06:32:00,
2013-01-11 22:42:00,39.6,36.9,30.01,ESE,123,0.0,0.0,90,0.00,,,0.00,0,Wunderground v.1.15,2013-01-12 06:42:00,
2013-01-11 22:47:00,39.9,37.2,30.01,ESE,123,0.0,0.0,90,0.00,,,0.00,0,Wunderground v.1.15,2013-01-12 06:47:00,
2013-01-11 22:52:00,39.9,37.2,30.01,ESE,123,0.0,0.0,90,0.00,,,0.00,0,Wunderground v.1.15,2013-01-12 06:52:00,
2013-01-11 22:57:00,39.9,37.2,30.01,ESE,123,0.0,0.0,90,0.00,,,0.00,0,Wunderground v.1.15,2013-01-12 06:57:00,
2013-01-11 23:02:00,39.9,36.9,30.01,ESE,123,0.0,0.0,89,0.00,,,0.00,0,Wunderground v.1.15,2013-01-12 07:02:00,
2013-01-11 23:07:00,39.9,36.9,30.01,ESE,123,0.0,0.0,89,0.00,,,0.00,0,Wunderground v.1.15,2013-01-12 07:07:00,
2013-01-11 23:12:00,39.9,36.9,30.01,ESE,123,0.0,0.0,89,0.00,,,0.00,0,Wunderground v.1.15,2013-01-12 07:12:00,
2013-01-11 23:22:00,39.9,36.9,30.00,ESE,123,0.0,0.0,89,0.00,,,0.00,0,Wunderground v.1.15,2013-01-12 07:22:00,
2013-01-11 23:27:00,39.9,36.9,30.00,ESE,123,0.0,0.0,89,0.00,,,0.00,0,Wunderground v.1.15,2013-01-12 07:27:00,
2013-01-11 23:32:00,39.8,36.8,30.00,ESE,123,0.0,0.0,89,0.00,,,0.00,0,Wunderground v.1.15,2013-01-12 07:32:00,
2013-01-11 23:37:00,39.6,36.6,30.00,ESE,123,0.0,0.0,89,0.00,,,0.00,0,Wunderground v.1.15,2013-01-12 07:37:00,
2013-01-11 23:42:00,39.6,36.6,30.00,ESE,123,0.0,0.0,89,0.00,,,0.00,0,Wunderground v.1.15,2013-01-12 07:42:00,
2013-01-11 23:47:00,39.5,36.5,30.01,ESE,123,0.0,0.0,89,0.00,,,0.00,0,Wunderground v.1.15,2013-01-12 07:47:00,
2013-01-11 23:52:00,39.3,36.3,30.01,ESE,123,0.0,0.0,89,0.00,,,0.00,0,Wunderground v.1.15,2013-01-12 07:52:00,
2013-01-11 23:57:00,39.2,36.2,30.01,ESE,123,0.0,0.0,89,0.00,,,0.00,0,Wunderground v.1.15,2013-01-12 07:57:00,